Time,TemperatureF,DewpointF,PressureIn,WindDirection,WindDirectionDegrees,WindSpeedMPH,WindSpeedGustMPH,Humidity,HourlyPrecipIn,Conditions,Clouds,dailyrainin,SolarRadiationWatts/m^2,SoftwareType,DateUTC
2013-08-27 00:23:00,77.0,76.0,-100.00,NNE,31,2.0,5.0,97,0.00,,,-99.99,0.000000,,2013-08-27 05:23:00,
2013-08-27 00:34:00,77.0,76.0,-100.00,NNE,31,2.0,5.0,97,0.00,,,-99.99,0.000000,,2013-08-27 05:34:00,
2013-08-27 00:43:00,77.0,76.0,-100.00,NNE,31,2.0,5.0,97,0.00,,,-99.99,0.000000,,2013-08-27 05:43:00,
2013-08-27 00:51:00,76.0,75.0,-100.00,NE,37,2.0,5.0,98,0.00,,,0.00,0.000000,,2013-08-27 05:51:00,
2013-08-27 01:22:00,76.0,75.0,-100.00,NE,37,2.0,5.0,98,0.00,,,0.00,0.000000,,2013-08-27 06:22:00,
2013-08-27 01:32:00,76.0,75.0,-100.00,NE,37,2.0,5.0,98,0.00,,,0.00,0.000000,,2013-08-27 06:32:00,
2013-08-27 01:42:00,76.0,75.0,-100.00,NE,37,2.0,5.0,98,0.00,,,0.00,0.000000,,2013-08-27 06:42:00,
2013-08-27 01:51:00,75.0,75.0,-100.00,SE,124,3.0,5.0,100,0.00,,,0.00,0.000000,,2013-08-27 06:51:00,
2013-08-27 02:21:00,75.0,75.0,-100.00,SE,124,3.0,5.0,100,0.00,,,0.00,0.000000,,2013-08-27 07:21:00,
2013-08-27 02:32:00,75.0,75.0,-100.00,SE,124,3.0,5.0,100,0.00,,,0.00,0.000000,,2013-08-27 07:32:00,
2013-08-27 02:42:00,75.0,75.0,-100.00,SE,124,3.0,5.0,100,0.00,,,0.00,0.000000,,2013-08-27 07:42:00,
2013-08-27 02:51:00,74.0,74.0,-100.00,NE,40,3.0,5.0,100,0.00,,,0.00,0.000000,,2013-08-27 07:51:00,
2013-08-27 03:22:00,74.0,74.0,-100.00,NE,40,3.0,5.0,100,0.00,,,0.00,0.000000,,2013-08-27 08:22:00,
2013-08-27 03:33:00,74.0,74.0,-100.00,NE,40,3.0,5.0,100,0.00,,,0.00,0.000000,,2013-08-27 08:33:00,
2013-08-27 03:42:00,74.0,74.0,-100.00,NE,40,3.0,5.0,100,0.00,,,0.00,0.000000,,2013-08-27 08:42:00,
2013-08-27 03:51:00,73.0,73.0,-100.00,NE,35,2.0,4.0,100,0.00,,,-99.99,0.000000,,2013-08-27 08:51:00,
2013-08-27 04:21:00,73.0,73.0,-100.00,NE,35,2.0,4.0,100,0.00,,,-99.99,0.000000,,2013-08-27 09:21:00,
2013-08-27 04:35:00,73.0,73.0,-100.00,NE,35,2.0,4.0,100,0.00,,,-99.99,0.000000,,2013-08-27 09:35:00,
2013-08-27 04:43:00,73.0,73.0,-100.00,NE,35,2.0,4.0,100,0.00,,,-99.99,0.000000,,2013-08-27 09:43:00,
2013-08-27 04:51:00,71.0,71.0,-100.00,South,186,3.0,4.0,100,0.00,,,0.00,0.000000,,2013-08-27 09:51:00,
2013-08-27 05:25:00,71.0,71.0,-100.00,South,186,3.0,4.0,100,0.00,,,0.00,0.000000,,2013-08-27 10:25:00,
2013-08-27 05:33:00,71.0,71.0,-100.00,South,186,3.0,4.0,100,0.00,,,0.00,0.000000,,2013-08-27 10:33:00,
2013-08-27 05:43:00,71.0,71.0,-100.00,South,186,3.0,4.0,100,0.00,,,0.00,0.000000,,2013-08-27 10:43:00,
2013-08-27 05:51:00,73.0,73.0,-100.00,WNW,291,4.0,9.0,100,0.00,,,0.00,0.000000,,2013-08-27 10:51:00,
2013-08-27 06:22:00,73.0,73.0,-100.00,WNW,291,4.0,9.0,100,0.00,,,0.00,0.000000,,2013-08-27 11:22:00,
2013-08-27 06:33:00,73.0,73.0,-100.00,WNW,291,4.0,9.0,100,0.00,,,0.00,0.000000,,2013-08-27 11:33:00,
2013-08-27 06:42:00,73.0,73.0,-100.00,WNW,291,4.0,9.0,100,0.00,,,0.00,0.000000,,2013-08-27 11:42:00,
2013-08-27 06:51:00,72.0,72.0,-100.00,WSW,256,3.0,6.0,100,0.00,,,0.00,1.000000,,2013-08-27 11:51:00,
2013-08-27 07:21:00,72.0,72.0,-100.00,WSW,256,3.0,6.0,100,0.00,,,0.00,1.000000,,2013-08-27 12:21:00,
2013-08-27 07:32:00,72.0,72.0,-100.00,WSW,256,3.0,6.0,100,0.00,,,0.00,1.000000,,2013-08-27 12:32:00,
2013-08-27 07:42:00,72.0,72.0,-100.00,WSW,256,3.0,6.0,100,0.00,,,0.00,1.000000,,2013-08-27 12:42:00,
2013-08-27 07:51:00,73.0,73.0,-100.00,NW,310,6.0,9.0,100,0.00,,,0.00,33.000000,,2013-08-27 12:51:00,
2013-08-27 08:22:00,73.0,73.0,-100.00,NW,310,6.0,9.0,100,0.00,,,0.00,33.000000,,2013-08-27 13:22:00,
2013-08-27 08:32:00,73.0,73.0,-100.00,NW,310,6.0,9.0,100,0.00,,,0.00,33.000000,,2013-08-27 13:32:00,
2013-08-27 08:42:00,73.0,73.0,-100.00,NW,310,6.0,9.0,100,0.00,,,0.00,33.000000,,2013-08-27 13:42:00,
2013-08-27 08:51:00,75.0,75.0,-100.00,NW,320,5.0,11.0,100,0.00,,,0.00,111.000000,,2013-08-27 13:51:00,
2013-08-27 09:22:00,75.0,75.0,-100.00,NW,320,5.0,11.0,100,0.00,,,0.00,111.000000,,2013-08-27 14:22:00,
2013-08-27 09:32:00,75.0,75.0,-100.00,NW,320,5.0,11.0,100,0.00,,,0.00,111.000000,,2013-08-27 14:32:00,
2013-08-27 09:42:00,75.0,75.0,-100.00,NW,320,5.0,11.0,100,0.00,,,0.00,111.000000,,2013-08-27 14:42:00,
2013-08-27 09:51:00,80.0,76.0,-100.00,NNW,341,6.0,9.0,87,0.00,,,0.00,261.000000,,2013-08-27 14:51:00,
2013-08-27 10:22:00,80.0,76.0,-100.00,NNW,341,6.0,9.0,87,0.00,,,0.00,261.000000,,2013-08-27 15:22:00,
2013-08-27 10:35:00,80.0,76.0,-100.00,NNW,341,6.0,9.0,87,0.00,,,0.00,261.000000,,2013-08-27 15:35:00,
2013-08-27 10:45:00,80.0,76.0,-100.00,NNW,341,6.0,9.0,87,0.00,,,0.00,261.000000,,2013-08-27 15:45:00,
2013-08-27 10:51:00,84.0,78.0,-100.00,NNW,329,6.0,10.0,81,0.00,,,0.00,517.000000,,2013-08-27 15:51:00,
2013-08-27 11:28:00,84.0,78.0,-100.00,NNW,329,6.0,10.0,81,0.00,,,0.00,517.000000,,2013-08-27 16:28:00,
2013-08-27 11:35:00,84.0,78.0,-100.00,NNW,329,6.0,10.0,81,0.00,,,0.00,517.000000,,2013-08-27 16:35:00,
2013-08-27 11:46:00,84.0,78.0,-100.00,NNW,329,6.0,10.0,81,0.00,,,0.00,517.000000,,2013-08-27 16:46:00,
2013-08-27 11:51:00,87.0,78.0,-100.00,NNW,347,8.0,12.0,76,0.00,,,0.00,519.000000,,2013-08-27 16:51:00,
2013-08-27 12:23:00,87.0,78.0,-100.00,NNW,347,8.0,12.0,76,0.00,,,0.00,519.000000,,2013-08-27 17:23:00,
2013-08-27 12:35:00,87.0,78.0,-100.00,NNW,347,8.0,12.0,76,0.00,,,0.00,519.000000,,2013-08-27 17:35:00,
2013-08-27 12:43:00,87.0,78.0,-100.00,NNW,347,8.0,12.0,76,0.00,,,0.00,519.000000,,2013-08-27 17:43:00,
2013-08-27 12:51:00,87.0,77.0,-100.00,North,6,9.0,14.0,72,0.00,,,0.00,566.000000,,2013-08-27 17:51:00,
2013-08-27 13:42:00,87.0,77.0,-100.00,North,6,9.0,14.0,72,0.00,,,0.00,566.000000,,2013-08-27 18:42:00,
2013-08-27 13:51:00,90.0,75.0,-100.00,NE,51,8.0,16.0,61,0.00,,,0.00,745.000000,,2013-08-27 18:51:00,
2013-08-27 14:22:00,90.0,75.0,-100.00,NE,51,8.0,16.0,61,0.00,,,0.00,745.000000,,2013-08-27 19:22:00,
2013-08-27 14:32:00,90.0,75.0,-100.00,NE,51,8.0,16.0,61,0.00,,,0.00,745.000000,,2013-08-27 19:32:00,
2013-08-27 14:42:00,90.0,75.0,-100.00,NE,51,8.0,16.0,61,0.00,,,0.00,745.000000,,2013-08-27 19:42:00,